User: anonymous   Login
Location: Banksville Park
(38.5557°N, 75.1182°W)
Time: 10:43:05
(UTC+00:00)
Language:

Cosmos 1821 Rocket - Orbit

View from above orbital plane
View from above orbital plane
View from above satellite
View from above satellite

Ground track
Ground track

The orbit data is extracted from the following two-line orbital elements,

1 17526U 87017B   21166.91265862  .00000068  00000-0  52871-4 0  9990
2 17526  82.9025  29.2766 0039960 194.2023 165.8014 13.76896129706964
Epoch (UTC): 15 June 2021 21:54:13
Eccentricity: 0.0039960
inclination: 82.9025°
perigee height: 945 km
apogee height: 1004 km
right ascension of ascending node: 29.2766°
argument of perigee: 194.2023°
revolutions per day: 13.76896129
mean anomaly at epoch: 165.8014°
orbit number at epoch: 70696

The dashed part of the orbit path shows where the satellite is in the earth's shadow,  

DLR